WP4MXZ San Sebastian PR US current weather conditions

sailwx.info

Wind from 114 at 6 knots gusting 12

Air temperature 30.0° C
Dewpoint 24.4° C

Last reported at 2016-Sep-30 17:35 UTC.
Time now 2016-Sep-30 18:37 UTC

Location: N 18°20' W 067°00'.
View on Google Maps.

See reports from other nearby stations

  
Tides and Currents Weather Stations Pressure Air Temp Water Temp Dewpoint Dewpoint Depression Visibility Wind Speed Wind Dir Waves Ship Positions
date/time (UTC)wind fromknots sea level pressurealtimeterstation pressurevisibilityair tempwater tempwave heightnotes
2016-Sep-30 17:35 114 6 gusting 12 30.0
2016-Sep-30 17:05 136 4 gusting 8 29.4
2016-Sep-30 16:35 107 6 gusting 12 30.6
2016-Sep-30 16:05 171 6 gusting 13 31.1
2016-Sep-30 15:35 169 5 gusting 13 30.0
2016-Sep-30 15:05 160 6 gusting 13 30.6
2016-Sep-30 14:35 128 6 gusting 10 30.0
2016-Sep-30 14:05 139 5 gusting 14 30.0
2016-Sep-30 13:35 141 6 gusting 10 30.0
2016-Sep-30 13:05 104 3 gusting 9 28.9
2016-Sep-30 12:35 182 0 gusting 6 28.3
2016-Sep-30 12:05 201 1 gusting 5 27.2
2016-Sep-30 11:35 199 26.7
2016-Sep-30 11:05 233 24.4
2016-Sep-30 10:35 233 23.9
2016-Sep-30 10:05 233 23.9
2016-Sep-30 09:35 182 25.0
2016-Sep-30 09:05 081 25.6
2016-Sep-30 08:35 126 0 gusting 4 25.6
2016-Sep-30 08:05 151 25.6
2016-Sep-30 07:35 118 1 gusting 5 26.1
2016-Sep-30 07:05 163 2 gusting 8 26.1
2016-Sep-30 06:35 177 0 gusting 4 26.7
2016-Sep-30 06:05 124 26.7
2016-Sep-30 05:35 112 1 gusting 6 26.7
2016-Sep-30 05:05 150 26.7
2016-Sep-30 04:35 166 0 gusting 6 26.7
2016-Sep-30 04:05 156 0 gusting 3 26.7
2016-Sep-30 03:35 159 0 gusting 7 26.7
2016-Sep-30 03:05 121 26.7
2016-Sep-30 02:35 145 2 gusting 6 27.2
2016-Sep-30 02:05 116 0 gusting 4 27.2
2016-Sep-30 01:35 108 3 gusting 6 27.2
2016-Sep-30 01:05 133 27.2
2016-Sep-30 00:35 122 1 gusting 6 27.2
2016-Sep-30 00:05 169 3 gusting 6 27.8
2016-Sep-29 23:35 144 4 gusting 7 27.8
2016-Sep-29 23:05 115 0 gusting 8 27.8
2016-Sep-29 22:35 106 0 gusting 5 28.3
2016-Sep-29 22:05 166 2 gusting 7 28.3
2016-Sep-29 21:35 152 2 gusting 11 28.9
2016-Sep-29 21:05 145 6 gusting 12 28.9
2016-Sep-29 20:35 140 3 gusting 11 29.4
2016-Sep-29 20:05 131 6 gusting 13 30.0
2016-Sep-29 19:35 119 4 gusting 10 30.6
2016-Sep-29 19:05 141 6 gusting 13 30.0
2016-Sep-29 18:35 108 6 gusting 13 30.6
2016-Sep-29 18:05 062 6 gusting 19 30.6
2016-Sep-29 17:35 144 6 gusting 14 31.1
2016-Sep-29 17:05 130 7 gusting 17 31.7
2016-Sep-29 16:35 146 10 gusting 17 31.1
2016-Sep-29 16:05 120 6 gusting 18 30.6
2016-Sep-29 15:35 120 4 gusting 11 31.1
2016-Sep-29 15:05 119 6 gusting 13 31.1
2016-Sep-29 14:35 145 6 gusting 13 30.6
2016-Sep-29 14:05 104 6 gusting 16 29.4
2016-Sep-29 13:35 180 6 gusting 13 29.4
2016-Sep-29 13:05 135 6 gusting 15 28.9
2016-Sep-29 12:35 156 6 gusting 12 28.3
2016-Sep-29 12:05 152 1 gusting 7 26.7
2016-Sep-29 11:35 119 4 gusting 9 27.2
2016-Sep-29 11:05 172 2 gusting 7 26.7
2016-Sep-29 10:35 164 0 gusting 6 26.1
2016-Sep-29 10:05 154 0 gusting 6 25.6
2016-Sep-29 07:05 144 25.0
2016-Sep-29 06:35 144 25.6
2016-Sep-29 06:05 144 26.1
2016-Sep-29 05:35 143 26.1
2016-Sep-29 05:05 133 0 gusting 4 26.1
2016-Sep-29 04:35 132 26.1
2016-Sep-29 04:05 131 1 gusting 6 26.1
2016-Sep-29 03:35 169 26.1
2016-Sep-29 03:05 171 26.1
2016-Sep-29 02:35 142 2 gusting 10 26.1
2016-Sep-29 02:05 172 5 gusting 12 26.7
2016-Sep-29 01:05 128 4 gusting 10 28.3
2016-Sep-29 00:35 145 28.3
2016-Sep-29 00:05 154 4 gusting 9 28.9
2016-Sep-28 23:35 120 3 gusting 8 28.3
2016-Sep-28 23:05 119 4 gusting 10 28.9
2016-Sep-28 22:35 123 4 gusting 7 28.9
2016-Sep-28 22:05 096 3 gusting 9 29.4
2016-Sep-28 21:35 140 7 gusting 10 30.0
2016-Sep-28 21:05 133 6 gusting 13 30.6
2016-Sep-28 20:35 117 6 gusting 15 31.1
2016-Sep-28 20:05 120 4 gusting 11 31.1
2016-Sep-28 19:35 122 4 gusting 13 31.1
2016-Sep-28 19:05 121 6 gusting 10 32.2
2016-Sep-28 18:35 136 4 gusting 11 32.2
2016-Sep-28 18:05 103 6 gusting 10 32.2